Stations météo

réclame
Mon MeteoGroup
Logrono/Agoncillo, Espagne (8084): Température de l'air & dewpoint: 01.08.2020 22:00:00 - 07.08.2020 22:00:00 (CEST)Logrono/Agoncillo, Espagne (8084): Vitesse du vent: 01.08.2020 22:00:00 - 07.08.2020 22:00:00 (CEST)Logrono/Agoncillo, Espagne (8084): Direction du vent: 01.08.2020 22:00:00 - 07.08.2020 22:00:00 (CEST)Logrono/Agoncillo, Espagne (8084): reduced air pressure: 01.08.2020 22:00:00 - 07.08.2020 22:00:00 (CEST)Logrono/Agoncillo, Espagne (8084): visibility: 01.08.2020 22:00:00 - 07.08.2020 22:00:00 (CEST)
Date & Time tt [°C] td [°C] ff [km/h] ff [knt] dd ppp [hPa] vv [km]
07.08.2020 22:00:00 24,3 16,6 18 10 SSW 1019,5 -
07.08.2020 21:00:00 22,3 17,9 9 5 SSE 1016,4 -
07.08.2020 20:00:00 25,2 16,8 16 9 SSE 1015,1 10
07.08.2020 19:00:00 27,4 17,8 8 4 W 1014,1 -
07.08.2020 18:00:00 31,3 20,6 9 5 NE 1011,7 -
07.08.2020 17:00:00 34,1 14,1 13 7 W 1013,2 20
07.08.2020 16:00:00 38,0 13,3 28 15 E 1012,0 -
07.08.2020 15:00:00 36,5 13,3 28 15 ENE 1013,2 -
07.08.2020 14:00:00 34,6 13,5 26 14 E 1014,1 30
07.08.2020 13:00:00 32,6 14,2 24 13 E 1014,9 -
07.08.2020 12:00:00 31,0 14,6 22 12 E 1015,8 -
07.08.2020 11:00:00 29,1 15,0 24 13 E 1016,2 20
07.08.2020 10:00:00 27,8 15,9 24 13 ENE 1016,4 -
07.08.2020 09:00:00 25,9 16,2 18 10 ENE 1016,4 -
07.08.2020 08:00:00 22,8 16,1 11 6 E 1016,6 20
07.08.2020 07:00:00 21,0 15,8 8 4 ENE 1016,4 -
07.08.2020 06:00:00 22,2 16,0 8 4 E 1015,6 -
07.08.2020 05:00:00 21,6 15,0 13 7 ENE 1015,5 -
07.08.2020 04:00:00 22,2 15,8 0 0 N 1015,2 -
07.08.2020 03:00:00 23,0 14,0 9 5 E 1014,9 -
07.08.2020 02:00:00 22,9 14,5 15 8 E 1014,7 -
07.08.2020 01:00:00 23,1 16,0 8 4 E 1014,4 -
07.08.2020 00:00:00 24,8 17,0 0 0 N 1013,7 -
06.08.2020 23:00:00 26,2 16,6 0 0 N 1013,0 -
06.08.2020 22:00:00 27,6 15,1 4 2 NNE 1012,1 -
06.08.2020 21:00:00 31,0 16,2 0 0 N 1011,2 -
06.08.2020 20:00:00 34,3 13,2 13 7 ENE 1010,5 20
06.08.2020 19:00:00 36,0 12,9 18 10 E 1010,3 -
06.08.2020 18:00:00 35,0 12,0 22 12 ENE 1010,6 -
06.08.2020 17:00:00 34,7 14,1 24 13 ENE 1010,9 20
06.08.2020 16:00:00 34,8 14,8 28 15 E 1011,5 -
06.08.2020 15:00:00 33,4 15,4 22 12 E 1012,5 -
06.08.2020 14:00:00 31,6 14,7 24 13 ENE 1013,4 25
06.08.2020 13:00:00 29,6 16,8 24 13 E 1013,8 -
06.08.2020 12:00:00 27,9 17,4 22 12 E 1014,8 -
06.08.2020 11:00:00 26,1 15,2 16 9 E 1015,5 25
06.08.2020 10:00:00 23,0 13,8 11 6 E 1016,0 -
06.08.2020 09:00:00 20,2 12,4 0 0 N 1016,6 -
06.08.2020 08:00:00 15,6 12,3 0 0 N 1016,7 25
06.08.2020 07:00:00 14,6 12,3 0 0 N 1016,6 -
06.08.2020 06:00:00 14,5 11,5 0 0 N 1016,3 -
06.08.2020 05:00:00 15,1 11,8 0 0 N 1016,0 -
06.08.2020 04:00:00 16,0 12,6 0 0 N 1015,4 -
06.08.2020 03:00:00 17,3 12,5 0 0 N 1015,3 -
06.08.2020 02:00:00 17,8 13,1 0 0 N 1015,0 -
06.08.2020 01:00:00 18,9 13,5 0 0 N 1014,7 -
06.08.2020 00:00:00 20,8 13,4 2 1 NW 1014,0 -
05.08.2020 23:00:00 24,3 9,5 9 5 SSE 1012,9 -
05.08.2020 22:00:00 24,6 9,3 0 0 N 1011,9 -
05.08.2020 21:00:00 29,1 8,5 0 0 N 1010,4 -
05.08.2020 20:00:00 32,2 8,8 0 0 N 1009,4 20
05.08.2020 19:00:00 35,2 1,8 5 3 ESE 1009,0 -
05.08.2020 18:00:00 35,3 1,6 4 2 NE 1009,2 -
05.08.2020 17:00:00 34,4 -0,1 0 0 N 1009,8 25
05.08.2020 16:00:00 32,8 0,4 4 2 W 1010,6 -
05.08.2020 15:00:00 30,9 3,8 4 2 NW 1011,4 -
05.08.2020 14:00:00 28,7 1,4 8 4 WNW 1012,5 25
05.08.2020 13:00:00 26,7 6,1 0 0 N 1013,3 -
05.08.2020 12:00:00 24,4 8,6 4 2 W 1014,0 -
05.08.2020 11:00:00 21,5 11,2 11 6 W 1014,5 25
05.08.2020 10:00:00 - - - - - - -
05.08.2020 09:00:00 - - - - - - -
05.08.2020 08:00:00 - - - - - - 25
05.08.2020 07:00:00 - - - - - - -
05.08.2020 06:00:00 - - - - - - -
05.08.2020 05:00:00 - - - - - - -
05.08.2020 04:00:00 - - - - - - -
05.08.2020 03:00:00 15,9 11,9 8 4 WSW 1016,3 -
05.08.2020 02:00:00 16,8 12,1 9 5 W 1016,3 -
05.08.2020 01:00:00 17,0 12,9 8 4 WSW 1016,3 -
05.08.2020 00:00:00 17,9 12,8 5 3 WSW 1016,4 -
04.08.2020 23:00:00 19,6 13,1 4 2 WSW 1016,0 -
04.08.2020 22:00:00 20,6 12,9 4 2 NNW 1015,6 -
04.08.2020 21:00:00 23,3 12,1 8 4 NNW 1015,0 -
04.08.2020 20:00:00 25,7 10,7 11 6 NW 1014,5 50
04.08.2020 19:00:00 26,9 10,2 9 5 WNW 1014,1 -
04.08.2020 18:00:00 27,0 10,0 13 7 NW 1014,4 -
04.08.2020 17:00:00 26,9 10,3 13 7 NW 1014,8 50
04.08.2020 16:00:00 25,8 11,2 11 6 NNW 1015,6 -
04.08.2020 15:00:00 26,6 11,5 8 4 N 1015,9 -
04.08.2020 14:00:00 25,3 11,6 9 5 WNW 1016,9 50
04.08.2020 13:00:00 23,8 11,7 9 5 W 1017,6 -
04.08.2020 12:00:00 22,2 12,2 13 7 W 1018,3 -
04.08.2020 11:00:00 20,6 12,1 9 5 W 1018,8 40
04.08.2020 10:00:00 19,2 12,5 9 5 W 1019,2 -
04.08.2020 09:00:00 17,3 12,3 5 3 W 1019,5 -
04.08.2020 08:00:00 16,5 11,6 9 5 WSW 1019,3 30
04.08.2020 07:00:00 16,0 11,6 4 2 W 1019,1 -
04.08.2020 06:00:00 16,2 11,6 11 6 W 1018,9 -
04.08.2020 05:00:00 15,4 11,3 9 5 W 1019,5 -
04.08.2020 04:00:00 15,8 11,4 9 5 W 1019,4 -
04.08.2020 03:00:00 16,5 11,2 9 5 WSW 1019,6 -
04.08.2020 02:00:00 16,8 10,6 5 3 SW 1019,9 -
04.08.2020 01:00:00 18,0 10,6 4 2 SSW 1019,5 -
04.08.2020 00:00:00 19,0 10,3 8 4 WNW 1019,0 -
03.08.2020 23:00:00 19,0 10,3 8 4 W 1018,6 -
03.08.2020 22:00:00 19,9 9,8 8 4 WNW 1017,9 -
03.08.2020 21:00:00 21,5 10,6 8 4 NW 1016,9 -
03.08.2020 20:00:00 22,8 11,0 13 7 NNW 1016,4 50
03.08.2020 19:00:00 23,7 11,1 16 9 NNW 1016,0 -
03.08.2020 18:00:00 24,4 11,5 13 7 NW 1015,9 -
03.08.2020 17:00:00 24,5 11,4 15 8 NW 1016,1 40
03.08.2020 16:00:00 25,1 11,1 13 7 NW 1016,0 -
03.08.2020 15:00:00 26,1 9,1 8 4 NW 1016,0 -
03.08.2020 14:00:00 25,0 9,4 9 5 WNW 1016,8 40
03.08.2020 13:00:00 23,3 10,1 11 6 W 1017,5 -
03.08.2020 12:00:00 22,3 9,7 11 6 WNW 1018,2 -
03.08.2020 11:00:00 20,7 10,7 13 7 W 1018,5 30
03.08.2020 10:00:00 18,9 11,5 11 6 W 1018,6 -
03.08.2020 09:00:00 17,8 12,5 13 7 W 1018,9 -
03.08.2020 08:00:00 16,2 12,7 8 4 W 1019,1 25
03.08.2020 07:00:00 15,5 12,3 9 5 W 1019,1 -
03.08.2020 06:00:00 16,4 12,4 11 6 W 1018,7 -
03.08.2020 05:00:00 16,9 12,4 9 5 W 1018,8 -
03.08.2020 04:00:00 17,8 12,5 11 6 W 1018,8 -
03.08.2020 03:00:00 17,9 12,3 9 5 WSW 1018,9 -
03.08.2020 02:00:00 18,2 12,4 8 4 W 1019,6 -
03.08.2020 01:00:00 18,3 12,4 8 4 WSW 1020,0 -
03.08.2020 00:00:00 18,6 12,1 9 5 W 1019,9 -
02.08.2020 23:00:00 18,6 12,5 9 5 W 1020,0 -
02.08.2020 22:00:00 19,3 12,6 11 6 W 1019,6 -
02.08.2020 21:00:00 20,0 12,2 11 6 WNW 1018,9 -
02.08.2020 20:00:00 21,5 12,3 9 5 WNW 1018,4 25
02.08.2020 19:00:00 21,4 12,8 9 5 NW 1018,2 -
02.08.2020 18:00:00 21,7 13,1 13 7 NW 1018,3 -
02.08.2020 17:00:00 23,0 12,6 11 6 NW 1018,5 -
02.08.2020 16:00:00 24,1 13,4 13 7 NW 1018,4 -
02.08.2020 15:00:00 24,9 13,4 11 6 WNW 1018,5 -
02.08.2020 14:00:00 22,3 13,4 11 6 WNW 1019,8 -
02.08.2020 13:00:00 21,7 13,9 13 7 W 1020,1 -
02.08.2020 12:00:00 20,8 14,4 13 7 W 1020,1 -
02.08.2020 11:00:00 20,9 14,5 9 5 W 1019,9 -
02.08.2020 10:00:00 20,3 14,2 9 5 W 1019,9 -
02.08.2020 09:00:00 20,1 14,8 11 6 WNW 1019,8 -
02.08.2020 08:00:00 20,1 15,0 11 6 W 1019,6 -
02.08.2020 07:00:00 19,3 15,2 9 5 WSW 1019,8 -
02.08.2020 06:00:00 19,4 14,9 9 5 W 1019,8 -
02.08.2020 05:00:00 19,3 14,8 9 5 WSW 1019,7 -
02.08.2020 04:00:00 19,2 14,9 9 5 W 1019,7 -
02.08.2020 03:00:00 19,8 15,3 9 5 W 1019,9 -
02.08.2020 02:00:00 20,4 15,8 9 5 W 1020,3 -
02.08.2020 01:00:00 20,6 16,0 8 4 W 1020,5 -
02.08.2020 00:00:00 20,9 15,9 8 4 WSW 1020,6 -
01.08.2020 23:00:00 20,9 15,9 9 5 W 1020,6 -
01.08.2020 22:00:00 21,2 15,7 8 4 W 1020,1 -

tt = Température de l'air
td = dewpoint
ff = Vitesse du vent
dd = Direction du vent
ppp = reduced air pressure
vv = visibility

stations d'obs. à proximité